Location: ?
(35.2180°N, 139.6392°E)
Time: 10:58:33
(UTC+00:00)

YAOGAN 6 - Pass Details

Date: 05 August 2024
Orbit: 395 x 415 km, 97.2° (Epoch: 15 September)

Event Time Altitude Azimuth Distance (km) Brightness Sun altitude
Rises 17:44:10 0° 26° (NNE) 2,408 7.3 -23.3°
Reaches altitude 10° 17:46:28 10° 42° (NE) 1,540 6.2 -23.0°
Maximum altitude 17:49:09 23° 96° (E) 976 4.5 -22.6°
Enters shadow 17:50:17 19° 127° (SE) 1,096 4.4 -22.4°
